Regional Weather Roundup
Issued by NWS

Home | Current Version | Previous Version | Graphics & Text | Print | Product List | Glossary On
Versions: 1 2 3 4 5 6 7 8 9 10 11 12 13 14 15 16 17 18 19 20 21 22 23 24 25 26 27 28 29 30 31 32 33 34 35 36 37 38 39 40 41 42 43 44 45 46 47 48 49 50
000
ASUS43 KOAX 221602
RWRNE

WEATHER ROUNDUP FOR NEBRASKA
NATIONAL WEATHER SERVICE OMAHA NE
1100 AM CDT FRI AUG 22 2014

NOTES: SATELLITE DATA IS BEING USED TO AUGMENT CLOUD COVER ABOVE
       12000 FEET.
       "FAIR" INDICATES FEW OR NO CLOUDS BELOW 12,000 FEET WITH NO
       SIGNIFICANT WEATHER AND/OR OBSTRUCTIONS TO VISIBILITY.

  * THESE STATIONS DO NOT REPORT WEATHER SUCH AS RAIN...SNOW OR FOG.

NEZ001>004-019>022-054>056-221700-
NEBRASKA PANHANDLE

CITY           SKY/WX    TMP DP  RH WIND       PRES   REMARKS
SCOTTSBLUFF    CLOUDY    69  56  62 W7        30.11S
ALLIANCE       CLOUDY    67  55  65 N12       30.10F
CHADRON        CLOUDY    67  59  75 NE8       30.09F
KIMBALL        LGT RAIN  65  58  77 W7        30.15S
SIDNEY         LGT RAIN  64  62  93 CALM      30.14R
$$

NEZ057>060-069>072-079>082-221700-
SOUTHWEST NEBRASKA

CITY           SKY/WX    TMP DP  RH WIND       PRES   REMARKS
NORTH PLATTE   CLOUDY    77  59  53 NW12      30.04R
IMPERIAL       PTSUNNY   74  59  59 N13       30.04R
LEXINGTON      PTSUNNY   79  73  81 N6        30.00F
MCCOOK         MOSUNNY   85  61  44 NE14      29.99F
OGALLALA       CLOUDY    65  62  90 NW6       30.07R
$$

NEZ005>010-023>029-035>040-094-221700-
NORTH CENTRAL NEBRASKA

CITY           SKY/WX    TMP DP  RH WIND       PRES   REMARKS
VALENTINE      CLOUDY    73  64  73 SE5       30.02S
AINSWORTH      CLOUDY    72  67  84 CALM      30.04R
BROKEN BOW     PTSUNNY   81  72  74 N5        30.01S
O`NEILL        MOSUNNY   80  71  74 NE7       30.01R
ORD            MOSUNNY   83  73  72 VRB5      29.98R
THEDFORD       CLOUDY    73  65  76 W3        30.05R
$$

NEZ041-046>049-061>064-073>077-083>087-221700-
SOUTH CENTRAL NEBRASKA

CITY           SKY/WX    TMP DP  RH WIND       PRES   REMARKS
GRAND ISLAND   SUNNY     82  70  66 VRB3      29.98R
AURORA         SUNNY     82  75  80 SE3       29.95S
HASTINGS       SUNNY     81  68  64 NE6       29.96R
HEBRON         PTSUNNY   82  71  68 SE5       29.92R
HOLDREGE       MOSUNNY   76  71  84 N7        30.00R
KEARNEY *      SUNNY     79  72  78 N7        29.98F
YORK           MOSUNNY   82 N/A N/A S5        29.94F
$$

NEZ011>018-030>034-042>045-221700-
NORTHEAST NEBRASKA

CITY           SKY/WX    TMP DP  RH WIND       PRES   REMARKS
NORFOLK        MOSUNNY   85  70  60 E6        29.96R
ALBION         MOSUNNY   81  72  72 E6        29.98R
BLAIR          SUNNY     83  74  75 S5        29.93S HX  90
FREMONT        SUNNY     85  73  65 SE3       29.93S HX  92
TEKAMAH        SUNNY     86  75  69 CALM      29.92S HX  95
WAYNE          SUNNY     82  75  78 NE8       29.97R
$$

NEZ050>053-065>068-078-088>093-221700-
SOUTHEAST NEBRASKA

CITY           SKY/WX    TMP DP  RH WIND       PRES   REMARKS
LINCOLN        MOSUNNY   87  72  60 S7        29.93S HX  93
OMAHA EPPLEY   MOSUNNY   84  74  71 VRB5      29.92S HX  91
BEATRICE       MOSUNNY   81  73  76 SE10      29.91F
FALLS CITY     CLOUDY    77  71  82 S12G20    29.92R
NEBRASKA CITY  PTSUNNY   82  74  77 SW8       29.93S
PLATTSMOUTH    MOSUNNY   83  73  72 S5        29.93S
$$

NEZ044-045-051>053-067-221700-
OMAHA AREA

CITY           SKY/WX    TMP DP  RH WIND       PRES   REMARKS
OMAHA EPPLEY   MOSUNNY   84  74  71 VRB5      29.92S HX  91
BLAIR          SUNNY     83  74  75 S5        29.93S HX  90
FREMONT        SUNNY     85  73  65 SE3       29.93S HX  92
MILLARD        SUNNY     85  75  72 S7        29.92S HX  92
PLATTSMOUTH    MOSUNNY   83  73  72 S5        29.93S
WAHOO          FAIR      84  74  70 E3        29.93S HX  91
$$



USA.gov is the U.S. government's official web portal to all federal, state and local government web resources and services.